Location: *
(34.6903°N, 135.5184°E)
Time: 22:07:42
(UTC+00:00)

PAYLOAD A - Pass Details

Date: 22 September 2019
Orbit: 691 x 833 km, 98.3° (Epoch: 17 October)

Event Time Altitude Azimuth Distance (km) Brightness Sun altitude
Rises 19:49:14 0° 2° (N) 3,088 7.3 -12.5°
Reaches altitude 10° 19:51:38 10° 354° (N) 2,158 6.4 -12.0°
Maximum altitude 19:55:54 35° 289° (WNW) 1,105 4.4 -11.1°
Drops below altitude 10° 20:00:08 10° 223° (SW) 2,140 5.9 -10.2°
Enters shadow 20:02:11 - 216° (SW) 2,931 6.6 -9.8°
